Weather in Sholya

Russia / Udmurt Republic     56°20′57″N   54°03′29″E
temp.,
°C
wind,
m/s
gust,
m/s
humid.,
%
clouds,
%
prec.,
mm/h
press.,
hPa
HPBL,
m
12 may, wed
wed1201:00+17w114973 0.0 102711
04:00+15n11585 0.0 102811
07:00+18nne11535 0.0 1028100
10:00+23se00405 0.0 1028638
13:00+26sse12305 0.0 10282085
16:00+26s323030 0.0 10272558
19:00+23sse22455 0.0 102713
22:00+18ssw22540 0.0 102711
13 may, thu
thu1301:00+17s11510 0.0 102711
04:00+15se11570 0.0 102811
07:00+19sse12530 0.0 1028117
10:00+24s23391 0.0 1028659
13:00+26s34325 0.0 10271797
16:00+26s34314 0.0 10262116
19:00+23ssw22473 0.0 102615
22:00+19sse22545 0.0 102611
14 may, fri
fri1401:00+17s22635 0.0 102612
04:00+15sse22645 0.0 102617
07:00+18s375353 0.0 1026209
10:00+22s474498 0.1 1025506
13:00+27ssw573494 0.0 10241335
16:00+28ssw583225 0.0 10231911
19:00+23ssw384890 0.0 1022195
22:00+19ssw345782 0.0 102348
15 may, sat
sat1501:00+18ssw346083 0.0 102254
04:00+17ssw336738 0.2 102349
07:00+19s3857100 0.1 1023219
10:00+24ssw583875 0.1 1023676
13:00+28sw682960 0.0 10221419
16:00+28sw573093 0.0 10211728
19:00+24sw354898 0.0 102080
22:00+20ssw335325 0.0 102033
16 may, sun
sun1601:00+18ssw345497 0.0 102046
04:00+17ssw33565 0.0 102036
07:00+20ssw37545 0.0 1020197
10:00+26ssw46390 0.0 1019593
13:00+29sw68295 0.0 10193051
16:00+29sw58288 0.0 10183481
19:00+25sw34452 0.0 101758
22:00+20s335019 0.0 101643